Weather History for KCEZ - March, 2013

Change the Weather History Date:

Wednesday, March 27, 2013

  Actual Average Record
Temperature  
Mean Temperature 47 °F 42 °F  
Max Temperature 67 °F 58 °F 71 °F (2007)
Min Temperature 27 °F 26 °F 18 °F (2006)
Degree Days  
Heating Degree Days 18 23  
Month to date heating degree days 667 711  
Since 1 July heating degree days 5533 5441  
Cooling Degree Days 0 0  
Month to date cooling degree days 0 0  
Year to date cooling degree days 0 0  
Moisture  
Dew Point 13 °F    
Average Humidity 36    
Maximum Humidity 63    
Minimum Humidity 9    
Precipitation  
Precipitation 0.00 in 0.03 in 0.01 in (2003)
Month to date precipitation 0.30 1.03  
Year to date precipitation 2.51 2.92  
Sea Level Pressure  
Sea Level Pressure 29.95 in    
Wind  
Wind Speed 5 mph (East)    
Max Wind Speed 22 mph    
Max Gust Speed 29 mph    
Visibility 10 miles    
Events      
T = Trace of Precipitation, MM = Missing Value Source: NWS Daily Summary

Daily Weather History Graph

Daily Weather History Graph

Search for Another Location

Airport or City:

Trip Planner

Search our weather history database for the weather conditions in past years. The results will help you decide how hot, cold, wet, or windy it might be!

Date:

Astronomy

Mar. 27, 2013 Rise Set
Actual Time 7:07 AM MDT 7:32 PM MDT
Civil Twilight 6:40 AM MDT 7:59 PM MDT
Nautical Twilight 6:10 AM MDT 8:29 PM MDT
Astronomical Twilight 5:39 AM MDT 9:01 PM MDT
Moon 8:18 PM MDT (3/27) 7:01 AM MDT (3/27)
Length of Visible Light 13h 18m
Length of Day
12h 25m
Full, 100% of the Moon is Illuminated
Mar 27
Full
Apr 2
Last Quarter
Apr 10
New
Apr 18
First Quarter
Apr 25
Full

Hourly Weather History & Observations

Time (MDT) Temp. Windchill Dew Point Humidity Pressure Visibility Wind Dir Wind Speed Gust Speed Precip Events Conditions
12:53 AM 37.9 °F 35.5 °F 17.1 °F 43% 29.91 in 10.0 mi East 3.5 mph - N/A   Mostly Cloudy
1:53 AM 37.0 °F - 17.1 °F 44% 29.89 in 10.0 mi Calm Calm - N/A   Overcast
2:53 AM 33.1 °F 27.7 °F 16.0 °F 50% 29.91 in 10.0 mi NE 5.8 mph - N/A   Scattered Clouds
3:53 AM 36.0 °F 30.3 °F 18.0 °F 48% 29.89 in 10.0 mi NE 6.9 mph - N/A   Mostly Cloudy
4:53 AM 37.0 °F 30.4 °F 18.0 °F 46% 29.91 in 10.0 mi ENE 9.2 mph - N/A   Overcast
5:53 AM 32.0 °F 27.5 °F 18.0 °F 56% 29.94 in 10.0 mi ENE 4.6 mph - N/A   Scattered Clouds
6:53 AM 28.9 °F 25.2 °F 17.1 °F 61% 29.97 in 10.0 mi ENE 3.5 mph - N/A   Clear
7:53 AM 32.0 °F 28.7 °F 18.0 °F 56% 30.03 in 10.0 mi ENE 3.5 mph - N/A   Clear
8:53 AM 42.1 °F - 19.9 °F 41% 30.01 in 10.0 mi Calm Calm - N/A   Clear
9:53 AM 50.0 °F - 19.0 °F 29% 29.99 in 10.0 mi Calm Calm - N/A   Clear
10:53 AM 57.9 °F - 15.1 °F 19% 29.96 in 10.0 mi SW 8.1 mph - N/A   Clear
11:53 AM 60.1 °F - 12.0 °F 15% 29.96 in 10.0 mi SW 6.9 mph 16.1 mph N/A   Clear
12:53 PM 62.1 °F - 9.0 °F 12% 29.95 in 10.0 mi South 5.8 mph 18.4 mph N/A   Clear
1:53 PM 64.0 °F - 10.0 °F 12% 29.93 in 10.0 mi South 9.2 mph 19.6 mph N/A   Clear
2:53 PM 64.0 °F - 3.9 °F 9% 29.92 in 10.0 mi SSW 10.4 mph 19.6 mph N/A   Clear
3:53 PM 64.9 °F - 3.0 °F 9% 29.90 in 10.0 mi West 12.7 mph 21.9 mph N/A   Clear
4:53 PM 64.0 °F - 5.0 °F 10% 29.89 in 10.0 mi NNW 13.8 mph 20.7 mph N/A   Clear
5:53 PM 62.1 °F - 7.0 °F 11% 29.93 in 10.0 mi NNW 5.8 mph - N/A   Clear
6:53 PM 60.1 °F - 8.1 °F 13% 29.94 in 10.0 mi Calm Calm - N/A   Clear
7:53 PM 50.0 °F - 12.9 °F 23% 29.98 in 10.0 mi ESE 5.8 mph - N/A   Clear
8:53 PM 48.0 °F - 12.9 °F 24% 29.97 in 10.0 mi Calm Calm - N/A   Clear
9:53 PM 45.0 °F 42.6 °F 14.0 °F 29% 29.96 in 10.0 mi East 4.6 mph - N/A   Clear
10:53 PM 43.0 °F - 15.1 °F 32% 29.96 in 10.0 mi Calm Calm - N/A   Clear
11:53 PM 35.1 °F - 14.0 °F 42% 29.98 in 10.0 mi Calm Calm - N/A   Scattered Clouds